This is the latest recevied weather packets stored in our database for station/object KB9ZI. If no packets are shown the sender has not sent any weather packets the latest 10 day(s).
| Time | Temp. | Humidity | Pressure | Rain* | Wind** | Luminosity | Snow |
|---|---|---|---|---|---|---|---|
| 1777402322 | 13.33° C | 55% | 1015.1 hPa | 0 mm | - | - | - |
| 1777402203 | 13.33° C | 55% | 1015.1 hPa | 0 mm | - | - | - |
| 1777402079 | 13.33° C | 54% | 1015.1 hPa | 0 mm | - | - | - |
| 1777401957 | 13.33° C | 58% | 1015.2 hPa | 0 mm | - | - | - |
| 1777401899 | 13.33° C | 58% | 1015.1 hPa | 0 mm | - | - | - |
| 1777401714 | 13.33° C | 54% | 1015.1 hPa | 0 mm | - | - | - |
| 1777401597 | 12.78° C | 57% | 1015 hPa | 0 mm | - | - | - |
| 1777401474 | 12.78° C | 55% | 1015.1 hPa | 0 mm | - | - | - |
| 1777401357 | 12.78° C | 54% | 1015.1 hPa | 0 mm | - | - | - |
| 1777401241 | 12.78° C | 54% | 1015 hPa | 0 mm | - | - | - |
| 1777401096 | 12.78° C | 54% | 1015.1 hPa | 0 mm | - | - | - |
| 1777400977 | 12.78° C | 56% | 1015.1 hPa | 0 mm | - | - | - |
| 1777400914 | 12.78° C | 53% | 1015.3 hPa | 0 mm | - | - | - |
| 1777400737 | 12.78° C | 56% | 1015.2 hPa | 0 mm | - | - | - |
| 1777400620 | 12.22° C | 54% | 1015.3 hPa | 0 mm | - | - | - |
| 1777400533 | 12.78° C | 55% | 1015.1 hPa | 0 mm | - | - | - |
| 1777400501 | 12.22° C | 56% | 1015.1 hPa | 0 mm | - | - | - |
| 1777400253 | 12.78° C | 53% | 1015.3 hPa | 0 mm | - | - | - |
| 1777400135 | 13.33° C | 58% | 1015.3 hPa | 0 mm | - | - | - |
| 1777400014 | 13.33° C | 55% | 1015.3 hPa | 0 mm | - | - | - |
| 1777399889 | 13.33° C | 60% | 1015.3 hPa | 0 mm | - | - | - |
| 1777399775 | 12.78° C | 53% | 1015.3 hPa | 0 mm | - | - | - |
| 1777399650 | 12.78° C | 53% | 1015.4 hPa | 0 mm | - | - | - |
| 1777399530 | 12.78° C | 57% | 1015.5 hPa | 0 mm | - | - | - |
| 1777399471 | 12.78° C | 58% | 1015.5 hPa | 0 mm | - | - | - |
* Rain latest hour (hover to see other rain measurements)
** Current wind speed in m/s (hover to see current wind gust speed)